Flag for USA

Past Weather in Eureka, Montana, USA — Yesterday and Last 2 Weeks

Now
41 °F

Clear.


Feels Like: 41 °F
Forecast: 78 / 46 °F
Wind: No wind

Location: Kalispell - Glacier Park International

Current Time: Jul 3, 2020 at 5:38:44 am

Latest Report: Jul 3, 2020 at 1:55 am


Visibility: 10 mi

Pressure: 30.06 "Hg (27.29 "Hg at 787m altitude)

Humidity: 96%

Dew Point: 40 °F

Location of EurekaLocation

Past Weather in Eureka — Graph

°F

Eureka Temperature Yesterday

Maximum temperature yesterday: 65 °F (at 4:55 pm)
Minimum temperature yesterday: 46 °F (at 11:55 pm)
Average temperature yesterday: 55 °F

High & Low Weather Summary for the Past Weeks

 TemperatureHumidityPressure
High83 °F (Jun 23, 5:55 pm)100% (Jun 18, 1:06 am)30.22 "Hg (Jun 18, 1:06 am)
Low41 °F (Jul 3, 1:55 am)29% (Jun 27, 5:55 pm)29.55 "Hg (Jun 27, 7:55 pm)
Average60 °F74%29.90 "Hg
* Reported Jun 18 1:06 am — Jul 3 1:55 am, Eureka. Weather by CustomWeather, © 2020

Note: Actual official high and low records may vary slightly from our data, if they occured in-between our weather recording intervals... More about our weather records

Eureka Weather History for the Previous 24 Hours

Scroll right to see more
 ConditionsComfort  
Time TempWeatherWind HumidityBarometerVisibility
1:55 am
Fri, Jul 3
41 °FClear.No wind96%30.06 "Hg10 mi
12:55 am44 °FClear.5 mph93%30.06 "Hg10 mi
11:55 pm
Thu, Jul 2
46 °FClear.5 mph89%30.06 "Hg10 mi
10:55 pm50 °FClear.No wind77%30.05 "Hg10 mi
9:55 pm55 °FClear.No wind64%30.03 "Hg10 mi
8:55 pm58 °FScattered clouds.7 mph62%30.01 "Hg10 mi
7:55 pm60 °FScattered clouds.8 mph60%30.00 "Hg10 mi
6:55 pm62 °FOvercast.8 mph58%29.99 "Hg10 mi
5:55 pm65 °FPartly sunny.5 mph45%29.98 "Hg10 mi
4:55 pm65 °FPartly sunny.3 mph45%29.99 "Hg10 mi
3:55 pm63 °FScattered clouds.10 mph48%29.99 "Hg10 mi
2:55 pm61 °FMostly cloudy.10 mph54%29.99 "Hg10 mi
1:55 pm58 °FOvercast.6 mph62%29.98 "Hg10 mi
12:55 pm57 °FOvercast.9 mph62%29.97 "Hg10 mi
11:55 am57 °FMostly cloudy.8 mph60%29.95 "Hg10 mi
10:55 am56 °FOvercast.13 mph62%29.93 "Hg10 mi
9:55 am55 °FOvercast.13 mph64%29.90 "Hg10 mi
8:55 am54 °FOvercast.7 mph69%29.88 "Hg10 mi
7:55 am52 °FOvercast.7 mph77%29.86 "Hg10 mi
6:55 am52 °FMostly cloudy.8 mph72%29.85 "Hg10 mi
5:55 am51 °FCloudy.6 mph74%29.84 "Hg10 mi
Weather by CustomWeather, © 2020

See weather overview